FW2847 Weather Reports


Display with metric or nautical units.
time (UTC)temp
F
wind
direction
speed
MPH
gust
MPH
rain 1hr
in
rain 24hr
in
rain mn
in
humidity
%
barometer
mb
20260505173823 35 75 1.0 4.0 0.00 0.25 0.09 96 1020.6
20260505173326 35 40 1.0 4.0 0.00 0.25 0.09 96 1020.6
20260505173054 35 65 1.0 4.0 0.00 0.25 0.09 96 1020.6
20260505172323 35 56 1.0 4.0 0.01 0.25 0.09 96 1020.6
20260505172055 35 12 1.0 4.0 0.01 0.25 0.09 96 1020.6
20260505171554 35 353 1.0 4.0 0.01 0.25 0.09 96 1020.6
20260505170823 35 49 1.0 4.0 0.01 0.25 0.09 96 1020.6
20260505170326 35 28 1.0 3.0 0.01 0.25 0.09 96 1020.6
20260505165826 35 25 1.0 3.0 0.01 0.25 0.09 96 1020.6
20260505165821 35 353 1.0 3.0 0.01 0.25 0.09 96 1020.6
20260505164823 35 15 1.0 3.0 0.01 0.25 0.09 96 1020.6
20260505164322 35 52 0.0 3.0 0.01 0.25 0.09 96 1020.6
20260505163821 35 356 0.0 2.0 0.01 0.25 0.09 96 1020.6
20260505163322 35 13 0.0 3.0 0.01 0.25 0.09 96 1020.6
20260505162827 35 347 1.0 4.0 0.00 0.24 0.08 96 1020.6
20260505162821 35 8 1.0 4.0 0.01 0.25 0.09 96 1020.6
20260505162443 35 39 1.0 3.0 0.00 0.24 0.08 96 1020.6
20260505161323 35 29 1.0 3.0 0.00 0.24 0.08 96 1020.6
20260505161053 35 23 1.0 3.0 0.01 0.24 0.08 96 1020.6
20260505160322 35 18 1.0 3.0 0.01 0.24 0.08 96 1020.6
20260505153321 34 10 0.0 2.0 0.02 0.24 0.08 95 1020.6
20260505153052 34 57 0.0 2.0 0.02 0.24 0.08 95 1020.6
20260505152321 34 15 0.0 2.0 0.02 0.24 0.08 95 1020.6
20260505151819 34 32 0.0 3.0 0.02 0.24 0.08 95 1020.6
20260505151320 34 15 0.0 3.0 0.03 0.24 0.08 95 1020.6
20260505151047 34 347 0.0 3.0 0.02 0.23 0.07 95 1020.6
20260505150315 34 301 0.0 3.0 0.02 0.23 0.07 95 1020.6
20260505140316 32 311 2.0 5.0 0.00 0.21 0.05 95 1020.6
20260505130311 32 27 3.0 7.0 0.00 0.21 0.05 95 1020.6
20260505124811 32 292 4.0 8.0 0.00 0.21 0.05 94 1020.6
20260505124314 32 342 4.0 8.0 0.00 0.21 0.05 94 1020.6
20260505123811 32 347 3.0 7.0 0.00 0.21 0.05 94 1020.6
20260505123313 32 12 3.0 7.0 0.00 0.21 0.05 94 1020.6
20260505122812 32 350 3.0 7.0 0.00 0.21 0.05 94 1020.6
20260505122312 32 334 3.0 6.0 0.00 0.21 0.05 94 1020.6
20260505121814 32 311 3.0 6.0 0.00 0.21 0.05 94 1020.6
20260505121541 32 328 3.0 7.0 0.00 0.21 0.05 94 1020.6
20260505120815 32 310 3.0 8.0 0.01 0.21 0.05 94 1020.6
20260505120310 32 336 3.0 8.0 0.01 0.21 0.05 94 1020.6
20260505115814 32 316 3.0 7.0 0.02 0.21 0.05 94 1020.6
20260505115315 33 355 3.0 7.0 0.02 0.21 0.05 94 1020.6
20260505115039 33 328 2.0 7.0 0.02 0.21 0.05 94 1020.6
20260505114308 33 15 3.0 10.0 0.02 0.21 0.05 94 1020.6
20260505113814 33 15 4.0 10.0 0.02 0.21 0.05 94 1020.6
20260505113311 33 330 4.0 11.0 0.03 0.21 0.05 94 1020.6
20260505112808 33 9 5.0 11.0 0.03 0.21 0.05 94 1020.6
20260505112309 34 297 6.0 13.0 0.03 0.21 0.05 93 1020.6
20260505111817 34 349 6.0 15.0 0.03 0.21 0.05 93 1020.6
20260505111813 34 21 7.0 15.0 0.03 0.21 0.05 93 1020.6
20260505110810 35 295 5.0 12.0 0.02 0.20 0.04 94 1020.6
20260505110309 35 30 6.0 13.0 0.02 0.20 0.04 94 1020.6
20260505102040 37 277 7.0 15.0 0.02 0.18 0.02 94 1020.6
20260505101313 37 35 7.0 15.0 0.02 0.18 0.02 94 1020.6
20260505100811 37 296 7.0 15.0 0.02 0.18 0.02 94 1020.6
20260505100540 37 352 7.0 15.0 0.02 0.18 0.02 94 1020.6
20260505095814 38 15 7.0 14.0 0.01 0.17 0.01 94 1020.6
20260505095312 38 347 8.0 16.0 0.01 0.17 0.01 94 1020.6
20260505094810 38 51 9.0 16.0 0.01 0.17 0.01 94 1020.6
20260505094540 39 356 9.0 16.0 0.01 0.17 0.01 94 1020.6
20260505093811 39 326 9.0 16.0 0.01 0.17 0.01 93 1020.6
20260505093314 39 238 8.0 15.0 0.01 0.17 0.01 93 1020.6
20260505093309 39 323 8.0 16.0 0.01 0.17 0.01 93 1020.6
20260505092311 39 313 8.0 15.0 0.01 0.17 0.01 93 1020.6
20260505091807 39 340 8.0 14.0 0.00 0.16 0.00 93 1020.6
20260505091307 39 356 8.0 15.0 0.00 0.16 0.00 93 1020.6
20260505091039 39 321 8.0 15.0 0.00 0.16 0.00 93 1020.6
20260505090307 39 308 7.0 13.0 0.00 0.16 0.00 93 1020.6
20260505085808 39 4 7.0 13.0 0.00 0.16 0.00 92 1020.6
20260505085306 39 343 8.0 15.0 0.00 0.16 0.00 92 1020.6
20260505084810 39 7 8.0 15.0 0.00 0.16 0.00 92 1020.6
20260505084305 40 34 7.0 15.0 0.00 0.16 0.00 92 1020.6
20260505083805 40 1 7.0 15.0 0.00 0.16 0.00 92 1020.6
20260505083306 40 311 7.0 12.0 0.00 0.16 0.00 91 1020.6
20260505082807 40 0 7.0 12.0 0.00 0.16 0.00 91 1020.6
20260505082305 40 336 7.0 13.0 0.00 0.16 0.00 91 1020.6
20260505081805 40 324 8.0 15.0 0.00 0.16 0.00 91 1020.6
20260505081310 42 350 7.0 12.0 0.00 0.16 0.00 90 1020.6
20260505081306 41 337 7.0 15.0 0.00 0.16 0.00 90 1020.6
20260505080305 43 29 6.0 12.0 0.00 0.16 0.00 89 1020.6
20260505075806 44 23 3.0 12.0 0.00 0.16 0.00 89 1020.6
20260505075306 45 310 1.0 5.0 0.00 0.16 0.00 89 1020.6
20260505074806 45 344 0.0 3.0 0.00 0.16 0.00 89 1020.6
20260505074304 44 111 0.0 0.0 0.00 0.16 0.00 89 1020.6
20260505073806 44 111 0.0 0.0 0.00 0.16 0.00 88 1020.6
20260505073306 44 111 0.0 0.0 0.00 0.16 0.00 88 1020.6
20260505072806 44 111 0.0 0.0 0.00 0.16 0.00 88 1020.6
20260505072305 44 111 0.0 0.0 0.00 0.16 0.00 88 1020.6
20260505071804 44 111 0.0 0.0 0.00 0.16 0.00 88 1020.6
20260505071537 44 111 0.0 0.0 0.00 0.16 0.00 87 1020.6
20260505070803 44 111 0.0 0.0 0.00 0.16 0.00 88 1020.6
20260505070533 44 111 0.0 0.0 0.00 0.16 0.00 88 1020.6
20260505065804 44 111 0.0 0.0 0.00 0.16 0.00 88 1020.6
20260505065303 44 111 0.0 0.0 0.00 0.16 0.00 88 1020.6
20260505064758 44 111 0.0 0.0 0.00 0.16 0.00 88 1020.6
20260505064300 45 111 0.0 0.0 0.00 0.16 0.00 88 1020.6
20260505064033 45 111 0.0 0.0 0.00 0.16 0.00 88 1020.6
20260505063259 45 111 0.0 0.0 0.00 0.16 0.00 88 1020.6
20260505062757 45 111 0.0 0.0 0.00 0.16 0.00 87 1020.6
20260505062257 45 111 0.0 0.0 0.00 0.16 0.00 87 1020.6
20260505062029 45 111 0.0 0.0 0.00 0.16 0.00 87 1020.6
20260505061255 45 111 0.0 0.0 0.00 0.16 0.00 87 1020.6
20260505060754 45 111 0.0 0.0 0.00 0.16 0.00 87 1020.6
20260505060527 45 111 0.0 0.0 0.00 0.16 0.00 87 1020.6
20260505055755 45 111 0.0 0.0 0.00 0.16 0.16 87 1020.6
20260505055255 44 111 0.0 0.0 0.00 0.16 0.16 87 1020.6
20260505055027 44 111 0.0 0.0 0.00 0.16 0.16 87 1020.6
20260505054255 44 111 0.0 0.0 0.00 0.16 0.16 87 1020.6
20260505053754 44 111 0.0 0.0 0.00 0.16 0.16 87 1020.6
20260505053253 44 275 0.0 0.0 0.00 0.16 0.16 88 1020.6
20260505052754 44 275 0.0 0.0 0.00 0.16 0.16 88 1020.6
20260505052524 44 129 0.0 0.0 0.00 0.16 0.16 87 1020.6
20260505051752 44 129 0.0 1.0 0.00 0.16 0.16 87 1020.6
20260505051253 44 99 0.0 1.0 0.00 0.16 0.16 87 1020.6
20260505050755 44 105 0.0 0.0 0.00 0.16 0.16 87 1020.6
20260505050524 44 110 0.0 0.0 0.00 0.16 0.16 87 1020.6
20260505041749 45 263 0.0 1.0 0.05 0.16 0.16 86 1020.6
20260505041248 45 263 0.0 1.0 0.06 0.16 0.16 86 1020.6
20260505041020 45 270 0.0 0.0 0.07 0.16 0.16 87 1020.6
20260505040248 45 271 0.0 0.0 0.09 0.16 0.16 88 1020.6
20260505035749 45 255 0.0 0.0 0.10 0.16 0.16 88 1020.6
20260505035248 45 254 0.0 0.0 0.12 0.16 0.16 87 1020.6
20260505034748 45 264 0.0 0.0 0.13 0.16 0.16 87 1020.6
20260505034248 45 264 0.0 1.0 0.15 0.16 0.16 86 1020.6
20260505033746 45 274 0.0 2.0 0.15 0.15 0.15 85 1020.6
20260505033247 45 276 1.0 4.0 0.14 0.14 0.15 85 1020.6
20260505032753 45 309 2.0 4.0 0.13 0.13 0.13 85 1020.6
20260505032748 45 284 1.0 4.0 0.14 0.14 0.14 85 1020.6
20260505031746 45 271 2.0 5.0 0.11 0.11 0.12 85 1020.6
20260505031518 45 256 3.0 7.0 0.10 0.10 0.10 84 1020.6
20260505030746 46 289 4.0 9.0 0.08 0.08 0.09 84 1020.6
20260505030244 46 279 6.0 12.0 0.07 0.07 0.08 84 1020.6
20260505025745 46 298 7.0 14.0 0.06 0.06 0.06 84 1020.6
20260505025245 46 300 7.0 14.0 0.04 0.04 0.04 84 1020.6
20260505025015 47 303 7.0 12.0 0.03 0.03 0.03 85 1020.6
20260505024245 47 300 6.0 11.0 0.01 0.01 0.01 83 1020.6
20260505023746 47 316 4.0 8.0 0.00 0.00 0.00 83 1020.6
20260505023244 47 298 3.0 7.0 0.00 0.00 0.00 82 1020.6
20260505022745 47 340 3.0 7.0 0.00 0.00 0.00 81 1020.6
20260505022244 47 299 3.0 7.0 0.00 0.00 0.00 81 1020.6
20260505021746 47 303 4.0 8.0 0.00 0.00 0.00 80 1020.6
20260505021513 48 356 5.0 10.0 0.00 0.00 0.00 78 1020.6
20260505020743 48 55 5.0 10.0 0.00 0.00 0.00 76 1020.6
20260505020242 48 243 5.0 10.0 0.00 0.00 0.00 76 1020.6
20260505020015 49 33 5.0 10.0 0.00 0.00 0.00 75 1020.6
20260505015243 49 6 5.0 10.0 0.00 0.00 0.00 72 1020.6
20260505014742 51 345 4.0 17.0 0.00 0.00 0.00 69 1020.6
20260505014244 52 44 2.0 17.0 0.00 0.00 0.00 62 1020.6
20260505013742 53 23 0.0 2.0 0.00 0.00 0.00 59 1020.6
20260505013242 53 53 0.0 2.0 0.00 0.00 0.00 59 1020.6
20260505012742 53 86 0.0 0.0 0.00 0.00 0.00 59 1020.6
20260505012241 53 86 0.0 0.0 0.00 0.00 0.00 59 1020.6
20260505011741 53 86 0.0 1.0 0.00 0.00 0.00 58 1020.6
20260505011240 54 86 0.0 1.0 0.00 0.00 0.00 57 1020.6
20260505010742 54 104 0.0 1.0 0.00 0.00 0.00 56 1020.6
20260505010239 54 131 0.0 5.0 0.00 0.00 0.00 55 1020.6
20260505010010 55 203 1.0 7.0 0.00 0.00 0.00 54 1020.6
20260505005510 55 347 2.0 7.0 0.00 0.00 0.00 54 1020.6
20260505004736 55 122 1.0 4.0 0.00 0.00 0.00 52 1020.6
20260505004237 55 95 1.0 3.0 0.00 0.00 0.00 51 1020.6
20260505003736 55 93 0.0 2.0 0.00 0.00 0.00 51 1020.6
20260505003235 56 285 0.0 0.0 0.00 0.00 0.00 51 1020.6
20260505002733 56 285 0.0 0.0 0.00 0.00 0.00 51 1020.6
20260505002237 56 285 0.0 0.0 0.00 0.00 0.00 51 1020.6
20260505001735 56 285 0.0 2.0 0.00 0.00 0.00 51 1020.6
20260505001231 56 15 1.0 3.0 0.00 0.00 0.00 52 1020.6
20260505000731 56 328 2.0 5.0 0.00 0.00 0.00 53 1020.6
20260505000230 56 327 2.0 5.0 0.00 0.00 0.00 52 1020.6
20260504235727 56 340 3.0 5.0 0.00 0.00 0.00 53 1020.6
20260504235228 56 325 4.0 6.0 0.00 0.00 0.00 53 1020.6
20260504234729 56 305 4.0 6.0 0.00 0.00 0.00 53 1020.6
20260504234227 56 336 4.0 6.0 0.00 0.00 0.00 52 1020.6
20260504233726 56 299 4.0 6.0 0.00 0.00 0.00 53 1020.6
20260504233226 56 313 4.0 9.0 0.00 0.00 0.00 51 1020.6
20260504232727 56 295 5.0 9.0 0.00 0.00 0.00 52 1020.6
20260504232456 56 295 4.0 8.0 0.00 0.00 0.00 53 1020.6
20260504231726 56 319 4.0 8.0 0.00 0.00 0.00 53 1020.6
20260504231225 56 320 4.0 8.0 0.00 0.00 0.00 54 1020.6
20260504230727 56 314 4.0 6.0 0.00 0.00 0.00 56 1020.6
20260504230228 55 298 3.0 6.0 0.00 0.00 0.00 57 1020.6
20260504225727 55 297 4.0 11.0 0.00 0.00 0.00 55 1020.6
20260504225223 54 308 6.0 12.0 0.00 0.00 0.00 57 1020.6
20260504224724 54 283 7.0 12.0 0.00 0.00 0.00 54 1020.6
20260504224226 55 311 7.0 12.0 0.00 0.00 0.00 61 1020.6
20260504223723 55 337 7.0 12.0 0.00 0.00 0.00 58 1020.6
20260504223223 55 314 6.0 12.0 0.00 0.00 0.00 55 1020.6
20260504222723 56 304 5.0 10.0 0.00 0.00 0.00 52 1020.6
20260504222226 57 335 4.0 8.0 0.00 0.00 0.00 48 1020.6
20260504221954 57 307 4.0 8.0 0.00 0.00 0.00 48 1020.6
20260504221221 57 12 4.0 9.0 0.00 0.00 0.00 48 1020.6
20260504220723 57 350 6.0 13.0 0.00 0.00 0.00 48 1020.6
20260504220221 57 336 8.0 14.0 0.00 0.00 0.00 47 1020.6
20260504215721 58 8 9.0 17.0 0.00 0.00 0.00 44 1020.6
20260504215223 58 58 10.0 18.0 0.00 0.00 0.00 43 1020.6
20260504214721 59 60 11.0 18.0 0.00 0.00 0.00 41 1020.6
20260504214455 59 318 12.0 19.0 0.00 0.00 0.00 40 1020.6
20260504213722 60 35 11.0 20.0 0.00 0.00 0.00 39 1020.6
20260504213222 61 75 10.0 20.0 0.00 0.00 0.00 37 1020.6
20260504212725 62 34 9.0 18.0 0.00 0.00 0.00 37 1020.6
20260504212222 63 8 5.0 16.0 0.00 0.00 0.00 35 1020.6
20260504211721 65 38 4.0 9.0 0.00 0.00 0.00 33 1020.6
20260504211221 66 108 5.0 10.0 0.00 0.00 0.00 33 1020.6
20260504210723 67 86 3.0 10.0 0.00 0.00 0.00 33 1020.6
20260504210223 66 116 2.0 6.0 0.00 0.00 0.00 32 1020.6
20260504205722 66 94 1.0 6.0 0.00 0.00 0.00 33 1020.6
20260504205221 67 103 2.0 5.0 0.00 0.00 0.00 30 1020.6
20260504204723 67 84 2.0 6.0 0.00 0.00 0.00 31 1020.6
20260504204222 66 137 2.0 6.0 0.00 0.00 0.00 32 1020.6
20260504203722 66 229 3.0 9.0 0.00 0.00 0.00 33 1020.6
20260504203222 65 89 2.0 9.0 0.00 0.00 0.00 33 1020.6
20260504202723 65 108 1.0 7.0 0.00 0.00 0.00 35 1020.6
20260504202222 64 281 1.0 7.0 0.00 0.00 0.00 35 1020.6
20260504201722 64 116 2.0 7.0 0.00 0.00 0.00 35 1020.6
20260504201219 65 103 1.0 6.0 0.00 0.00 0.00 35 1020.6
20260504200719 64 106 1.0 5.0 0.00 0.00 0.00 38 1020.6
20260504200221 62 242 1.0 6.0 0.00 0.00 0.00 39 1020.6
20260504195721 62 259 1.0 6.0 0.00 0.00 0.00 41 1020.6
20260504195219 62 96 1.0 6.0 0.00 0.00 0.00 39 1020.6
20260504194721 61 191 1.0 6.0 0.00 0.00 0.00 40 1020.6
20260504194220 61 238 2.0 6.0 0.00 0.00 0.00 40 1020.6
20260504193721 61 110 3.0 11.0 0.00 0.00 0.00 39 1020.6
20260504193220 62 110 4.0 12.0 0.00 0.00 0.00 37 1020.6
20260504192719 63 268 3.0 12.0 0.00 0.00 0.00 36 1020.6
20260504192219 65 78 3.0 9.0 0.00 0.00 0.00 32 1020.6
20260504191950 67 83 2.0 6.0 0.00 0.00 0.00 27 1020.6
20260504191220 68 95 2.0 7.0 0.00 0.00 0.00 25 1020.6
20260504190721 67 280 4.0 13.0 0.00 0.00 0.00 26 1020.6
20260504190448 67 312 6.0 13.0 0.00 0.00 0.00 25 1020.6
20260504185719 68 301 7.0 16.0 0.00 0.00 0.00 25 1020.6
20260504185219 69 282 6.0 16.0 0.00 0.00 0.00 24 1020.6
20260504184718 69 297 7.0 13.0 0.00 0.00 0.00 25 1020.6
20260504184216 71 309 7.0 13.0 0.00 0.00 0.00 23 1020.6
20260504183717 71 295 6.0 13.0 0.00 0.00 0.00 22 1020.6
20260504183214 71 267 8.0 15.0 0.00 0.00 0.00 21 1020.6
20260504182713 71 279 9.0 16.0 0.00 0.00 0.00 23 1020.6
20260504182213 70 300 8.0 16.0 0.00 0.00 0.00 23 1020.6
20260504181712 70 276 8.0 15.0 0.00 0.00 0.00 21 1020.6
20260504181213 70 319 9.0 16.0 0.00 0.00 0.00 25 1020.6
20260504180711 69 334 11.0 17.0 0.00 0.00 0.00 24 1020.6
20260504180442 69 328 11.0 17.0 0.00 0.00 0.00 25 1020.6
20260504175711 69 305 11.0 17.0 0.00 0.00 0.00 26 1020.6
20260504175210 69 299 12.0 17.0 0.00 0.00 0.00 26 1020.6
20260504174711 69 307 10.0 16.0 0.00 0.00 0.00 25 1020.6
20260504174209 69 294 10.0 16.0 0.00 0.00 0.00 27 1020.6